Year,Month,Day,Hour,Minute,Value (Times are PST for windgust in km/hr)
2013,10,01,00,04,1.60
2013,10,01,00,05,1.60
2013,10,01,00,06,1.60
2013,10,01,00,07,1.60
2013,10,01,00,08,1.60
2013,10,01,00,09,3.20
2013,10,01,00,10,3.20
2013,10,01,00,11,1.60
2013,10,01,00,12,1.60
2013,10,01,00,13,1.60
2013,10,01,00,14,1.60
2013,10,01,00,15,1.60
2013,10,01,00,16,3.20
2013,10,01,00,17,3.20
2013,10,01,00,18,1.60
2013,10,01,00,19,3.20
2013,10,01,00,20,3.20
2013,10,01,00,21,3.20
2013,10,01,00,22,3.20
2013,10,01,00,23,3.20
2013,10,01,00,24,4.80
2013,10,01,00,25,4.80
2013,10,01,00,26,3.20
2013,10,01,00,27,1.60
2013,10,01,00,29,1.60
2013,10,01,00,30,3.20
2013,10,01,00,31,3.20
2013,10,01,00,32,3.20
2013,10,01,00,33,1.60
2013,10,01,00,34,3.20
2013,10,01,00,35,3.20
2013,10,01,00,36,1.60
2013,10,01,00,37,1.60
2013,10,01,00,38,3.20
2013,10,01,00,39,3.20
2013,10,01,00,40,4.80
2013,10,01,00,41,3.20
2013,10,01,00,42,1.60
2013,10,01,00,43,1.60
2013,10,01,00,44,3.20
2013,10,01,00,45,1.60
2013,10,01,00,46,1.60
2013,10,01,00,48,4.80
2013,10,01,00,49,3.20
2013,10,01,00,50,3.20
2013,10,01,00,51,3.20
2013,10,01,00,52,3.20
2013,10,01,00,53,3.20
2013,10,01,00,54,3.20
2013,10,01,00,55,3.20
2013,10,01,00,56,1.60
2013,10,01,00,57,1.60
2013,10,01,00,58,1.60
2013,10,01,00,59,1.60
2013,10,01,01,00,1.60
2013,10,01,01,01,1.60
2013,10,01,01,02,1.60
2013,10,01,01,03,1.60
2013,10,01,01,04,1.60
2013,10,01,01,05,1.60
2013,10,01,01,06,1.60
2013,10,01,01,07,6.40
2013,10,01,01,08,4.80
2013,10,01,01,09,4.80
2013,10,01,01,10,1.60
2013,10,01,01,11,1.60
2013,10,01,01,12,1.60
2013,10,01,01,14,1.60
2013,10,01,01,15,1.60
2013,10,01,01,16,1.60
2013,10,01,01,18,1.60
2013,10,01,01,19,1.60
2013,10,01,01,20,1.60
2013,10,01,01,21,1.60
2013,10,01,01,24,1.60
2013,10,01,01,25,1.60
2013,10,01,01,26,1.60
2013,10,01,01,27,1.60
2013,10,01,01,28,1.60
2013,10,01,01,29,1.60
2013,10,01,01,30,1.60
2013,10,01,01,31,3.20
2013,10,01,01,32,1.60
2013,10,01,01,33,1.60
2013,10,01,01,34,1.60
2013,10,01,01,35,1.60
2013,10,01,01,36,1.60
2013,10,01,01,37,1.60
2013,10,01,01,38,1.60
2013,10,01,01,39,1.60
2013,10,01,01,40,1.60
2013,10,01,01,43,1.60
2013,10,01,01,44,1.60
2013,10,01,01,46,1.60
2013,10,01,01,47,1.60
2013,10,01,01,51,1.60
2013,10,01,01,53,1.60
2013,10,01,01,54,3.20
2013,10,01,01,55,3.20
2013,10,01,01,56,1.60
2013,10,01,01,57,1.60
2013,10,01,01,58,1.60
2013,10,01,01,59,3.20
2013,10,01,02,00,1.60
2013,10,01,02,02,1.60
2013,10,01,02,03,3.20
2013,10,01,02,04,1.60
2013,10,01,02,05,1.60
2013,10,01,02,06,1.60
2013,10,01,02,07,3.20
2013,10,01,02,08,1.60
2013,10,01,02,09,1.60
2013,10,01,02,10,1.60
2013,10,01,02,12,1.60
2013,10,01,02,13,1.60
2013,10,01,02,14,3.20
2013,10,01,02,15,1.60
2013,10,01,02,16,1.60
2013,10,01,02,17,1.60
2013,10,01,02,18,1.60
2013,10,01,02,19,1.60
2013,10,01,02,20,1.60
2013,10,01,02,21,1.60
2013,10,01,02,29,1.60
2013,10,01,02,30,1.60
2013,10,01,02,31,1.60
2013,10,01,02,32,1.60
2013,10,01,02,37,1.60
2013,10,01,02,38,1.60
2013,10,01,02,39,1.60
2013,10,01,02,40,1.60
2013,10,01,02,41,1.60
2013,10,01,02,43,3.20
2013,10,01,02,44,3.20
2013,10,01,02,45,3.20
2013,10,01,02,46,3.20
2013,10,01,02,47,3.20
2013,10,01,02,48,1.60
2013,10,01,02,49,1.60
2013,10,01,02,50,3.20
2013,10,01,02,51,1.60
2013,10,01,02,52,1.60
2013,10,01,02,53,1.60
2013,10,01,02,54,1.60
2013,10,01,02,55,1.60
2013,10,01,02,56,1.60
2013,10,01,02,57,1.60
2013,10,01,02,59,1.60
2013,10,01,03,00,1.60
2013,10,01,03,01,1.60
2013,10,01,03,02,3.20
2013,10,01,03,03,3.20
2013,10,01,03,04,1.60
2013,10,01,03,05,1.60
2013,10,01,03,06,1.60
2013,10,01,03,07,1.60
2013,10,01,03,08,3.20
2013,10,01,03,09,3.20
2013,10,01,03,10,3.20
2013,10,01,03,11,1.60
2013,10,01,03,12,3.20
2013,10,01,03,13,3.20
2013,10,01,03,14,4.80
2013,10,01,03,15,3.20
2013,10,01,03,16,4.80
2013,10,01,03,17,1.60
2013,10,01,03,18,3.20
2013,10,01,03,19,3.20
2013,10,01,03,20,1.60
2013,10,01,03,21,3.20
2013,10,01,03,22,1.60
2013,10,01,03,23,1.60
2013,10,01,03,26,1.60
2013,10,01,03,31,1.60
2013,10,01,03,33,1.60
2013,10,01,03,34,1.60
2013,10,01,03,35,3.20
2013,10,01,03,36,1.60
2013,10,01,03,37,1.60
2013,10,01,03,38,1.60
2013,10,01,03,39,1.60
2013,10,01,03,40,1.60
2013,10,01,03,41,1.60
2013,10,01,03,42,1.60
2013,10,01,03,43,1.60
2013,10,01,03,44,1.60
2013,10,01,03,45,1.60
2013,10,01,03,46,1.60
2013,10,01,03,47,1.60
2013,10,01,03,48,1.60
2013,10,01,03,49,1.60
2013,10,01,03,50,1.60
2013,10,01,03,51,1.60
2013,10,01,03,52,1.60
2013,10,01,03,53,1.60
2013,10,01,03,54,1.60
2013,10,01,03,55,1.60
2013,10,01,03,56,1.60
2013,10,01,03,57,1.60
2013,10,01,03,58,1.60
2013,10,01,03,59,1.60
2013,10,01,04,00,1.60
2013,10,01,04,02,1.60
2013,10,01,04,03,1.60
2013,10,01,04,04,1.60
2013,10,01,04,05,1.60
2013,10,01,04,06,3.20
2013,10,01,04,07,3.20
2013,10,01,04,08,1.60
2013,10,01,04,09,1.60
2013,10,01,04,10,1.60
2013,10,01,04,11,1.60
2013,10,01,04,15,1.60
2013,10,01,04,16,1.60
2013,10,01,04,17,1.60
2013,10,01,04,18,1.60
2013,10,01,04,19,1.60
2013,10,01,04,20,1.60
2013,10,01,04,36,1.60
2013,10,01,04,38,1.60
2013,10,01,04,39,1.60
2013,10,01,04,40,1.60
2013,10,01,04,41,1.60
2013,10,01,04,42,1.60
2013,10,01,04,43,1.60
2013,10,01,04,47,1.60
2013,10,01,04,48,1.60
2013,10,01,04,58,1.60
2013,10,01,04,59,1.60
2013,10,01,05,00,1.60
2013,10,01,05,01,1.60
2013,10,01,05,02,1.60
2013,10,01,05,03,1.60
2013,10,01,05,04,3.20
2013,10,01,05,05,1.60
2013,10,01,05,06,1.60
2013,10,01,05,07,1.60
2013,10,01,05,19,3.20
2013,10,01,05,20,3.20
2013,10,01,05,21,3.20
2013,10,01,05,22,1.60
2013,10,01,05,23,1.60
2013,10,01,05,24,1.60
2013,10,01,05,25,3.20
2013,10,01,05,26,3.20
2013,10,01,05,27,3.20
2013,10,01,05,28,3.20
2013,10,01,05,30,1.60
2013,10,01,05,31,1.60
2013,10,01,05,32,1.60
2013,10,01,05,33,1.60
2013,10,01,05,34,1.60
2013,10,01,05,35,3.20
2013,10,01,05,36,3.20
2013,10,01,05,37,3.20
2013,10,01,05,38,4.80
2013,10,01,05,39,3.20
2013,10,01,05,40,1.60
2013,10,01,05,41,1.60
2013,10,01,05,43,1.60
2013,10,01,05,44,1.60
2013,10,01,05,45,1.60
2013,10,01,05,47,3.20
2013,10,01,05,48,3.20
2013,10,01,05,49,4.80
2013,10,01,05,50,3.20
2013,10,01,05,51,3.20
2013,10,01,05,52,1.60
2013,10,01,05,53,3.20
2013,10,01,05,54,3.20
2013,10,01,05,55,1.60
2013,10,01,05,56,1.60
2013,10,01,05,57,1.60
2013,10,01,05,58,1.60
2013,10,01,05,59,3.20
2013,10,01,06,00,3.20
2013,10,01,06,01,3.20
2013,10,01,06,02,3.20
2013,10,01,06,03,3.20
2013,10,01,06,04,1.60
2013,10,01,06,05,3.20
2013,10,01,06,06,3.20
2013,10,01,06,07,3.20
2013,10,01,06,08,3.20
2013,10,01,06,09,3.20
2013,10,01,06,10,3.20
2013,10,01,06,11,1.60
2013,10,01,06,12,1.60
2013,10,01,06,13,1.60
2013,10,01,06,14,1.60
2013,10,01,06,15,3.20
2013,10,01,06,16,1.60
2013,10,01,06,17,3.20
2013,10,01,06,18,1.60
2013,10,01,06,19,1.60
2013,10,01,06,20,1.60
2013,10,01,06,21,1.60
2013,10,01,06,22,1.60
2013,10,01,06,23,3.20
2013,10,01,06,24,3.20
2013,10,01,06,25,1.60
2013,10,01,06,26,3.20
2013,10,01,06,27,3.20
2013,10,01,06,28,3.20
2013,10,01,06,29,4.80
2013,10,01,06,30,3.20
2013,10,01,06,31,3.20
2013,10,01,06,32,3.20
2013,10,01,06,33,3.20
2013,10,01,06,34,3.20
2013,10,01,06,35,3.20
2013,10,01,06,36,3.20
2013,10,01,06,37,1.60
2013,10,01,06,38,1.60
2013,10,01,06,39,3.20
2013,10,01,06,40,3.20
2013,10,01,06,41,1.60
2013,10,01,06,42,3.20
2013,10,01,06,43,1.60
2013,10,01,06,44,1.60
2013,10,01,06,45,1.60
2013,10,01,06,46,1.60
2013,10,01,06,47,1.60
2013,10,01,06,48,1.60
2013,10,01,06,52,1.60
2013,10,01,06,53,3.20
2013,10,01,06,54,3.20
2013,10,01,06,55,1.60
2013,10,01,06,56,1.60
2013,10,01,06,57,3.20
2013,10,01,06,58,1.60
2013,10,01,06,59,1.60
2013,10,01,07,00,1.60
2013,10,01,07,01,1.60
2013,10,01,07,02,1.60
2013,10,01,07,03,1.60
2013,10,01,07,04,1.60
2013,10,01,07,05,1.60
2013,10,01,07,06,1.60
2013,10,01,07,07,1.60
2013,10,01,07,08,1.60
2013,10,01,07,09,1.60
2013,10,01,07,10,1.60
2013,10,01,07,11,3.20
2013,10,01,07,12,3.20
2013,10,01,07,13,3.20
2013,10,01,07,14,1.60
2013,10,01,07,15,1.60
2013,10,01,07,16,1.60
2013,10,01,07,33,1.60
2013,10,01,07,34,1.60
2013,10,01,07,35,1.60
2013,10,01,07,36,1.60
2013,10,01,07,37,1.60
2013,10,01,07,38,1.60
2013,10,01,07,39,1.60
2013,10,01,07,41,1.60
2013,10,01,07,42,1.60
2013,10,01,07,43,1.60
2013,10,01,07,44,1.60
2013,10,01,07,45,1.60
2013,10,01,07,50,1.60
2013,10,01,07,51,1.60
2013,10,01,08,01,1.60
2013,10,01,08,02,1.60
2013,10,01,08,03,1.60
2013,10,01,08,04,1.60
2013,10,01,08,05,1.60
2013,10,01,08,06,1.60
2013,10,01,08,07,1.60
2013,10,01,08,08,1.60
2013,10,01,08,09,1.60
2013,10,01,08,10,1.60
2013,10,01,08,12,1.60
2013,10,01,08,13,1.60
2013,10,01,08,14,1.60
2013,10,01,08,15,1.60
2013,10,01,08,16,1.60
2013,10,01,08,17,1.60
2013,10,01,08,19,1.60
2013,10,01,08,20,1.60
2013,10,01,08,21,1.60
2013,10,01,08,22,1.60
2013,10,01,08,23,1.60
2013,10,01,08,25,1.60
2013,10,01,08,26,1.60
2013,10,01,08,28,1.60
2013,10,01,08,38,1.60
2013,10,01,08,39,1.60
2013,10,01,08,40,3.20
2013,10,01,08,41,3.20
2013,10,01,08,42,3.20
2013,10,01,08,43,1.60
2013,10,01,08,44,1.60
2013,10,01,08,45,1.60
2013,10,01,08,46,1.60
2013,10,01,08,47,1.60
2013,10,01,08,48,3.20
2013,10,01,08,49,1.60
2013,10,01,08,50,1.60
2013,10,01,08,51,1.60
2013,10,01,08,52,1.60
2013,10,01,08,53,1.60
2013,10,01,08,54,1.60
2013,10,01,08,55,1.60
2013,10,01,08,56,1.60
2013,10,01,08,57,1.60
2013,10,01,08,58,1.60
2013,10,01,08,59,1.60
2013,10,01,09,00,1.60
2013,10,01,09,01,1.60
2013,10,01,09,02,1.60
2013,10,01,09,08,1.60
2013,10,01,09,14,1.60
2013,10,01,09,16,1.60
2013,10,01,09,17,1.60
2013,10,01,09,18,1.60
2013,10,01,09,20,1.60
2013,10,01,09,21,3.20
2013,10,01,09,22,3.20
2013,10,01,09,23,3.20
2013,10,01,09,24,3.20
2013,10,01,09,25,3.20
2013,10,01,09,26,3.20
2013,10,01,09,27,3.20
2013,10,01,09,28,1.60
2013,10,01,09,29,3.20
2013,10,01,09,30,3.20
2013,10,01,09,31,1.60
2013,10,01,09,32,1.60
2013,10,01,09,33,1.60
2013,10,01,09,34,3.20
2013,10,01,09,35,3.20
2013,10,01,09,36,3.20
2013,10,01,09,37,3.20
2013,10,01,09,38,4.80
2013,10,01,09,39,3.20
2013,10,01,09,40,1.60
2013,10,01,09,41,3.20
2013,10,01,09,42,3.20
2013,10,01,09,43,1.60
2013,10,01,09,44,1.60
2013,10,01,09,45,1.60
2013,10,01,09,46,3.20
2013,10,01,09,47,3.20
2013,10,01,09,48,3.20
2013,10,01,09,49,3.20
2013,10,01,09,50,1.60
2013,10,01,09,51,1.60
2013,10,01,09,52,1.60
2013,10,01,09,53,1.60
2013,10,01,09,54,1.60
2013,10,01,09,57,1.60
2013,10,01,09,58,1.60
2013,10,01,09,59,3.20
2013,10,01,10,00,3.20
2013,10,01,10,01,3.20
2013,10,01,10,02,3.20
2013,10,01,10,03,3.20
2013,10,01,10,04,3.20
2013,10,01,10,05,1.60
2013,10,01,10,06,1.60
2013,10,01,10,07,3.20
2013,10,01,10,08,1.60
2013,10,01,10,09,3.20
2013,10,01,10,10,3.20
2013,10,01,10,11,3.20
2013,10,01,10,12,3.20
2013,10,01,10,13,4.80
2013,10,01,10,14,3.20
2013,10,01,10,15,3.20
2013,10,01,10,16,3.20
2013,10,01,10,17,3.20
2013,10,01,10,19,1.60
2013,10,01,10,20,1.60
2013,10,01,10,21,1.60
2013,10,01,10,22,1.60
2013,10,01,10,23,3.20
2013,10,01,10,24,1.60
2013,10,01,10,25,3.20
2013,10,01,10,26,1.60
2013,10,01,10,27,3.20
2013,10,01,10,28,1.60
2013,10,01,10,29,1.60
2013,10,01,10,30,1.60
2013,10,01,10,31,1.60
2013,10,01,10,32,4.80
2013,10,01,10,33,6.40
2013,10,01,10,34,3.20
2013,10,01,10,35,6.40
2013,10,01,10,36,6.40
2013,10,01,10,37,4.80
2013,10,01,10,38,4.80
2013,10,01,10,39,6.40
2013,10,01,10,40,6.40
2013,10,01,10,41,3.20
2013,10,01,10,42,4.80
2013,10,01,10,43,6.40
2013,10,01,10,44,9.60
2013,10,01,10,45,3.20
2013,10,01,10,46,4.80
2013,10,01,10,47,3.20
2013,10,01,10,48,3.20
2013,10,01,10,49,1.60
2013,10,01,10,50,6.40
2013,10,01,10,51,3.20
2013,10,01,10,52,3.20
2013,10,01,10,53,3.20
2013,10,01,10,54,4.80
2013,10,01,10,55,3.20
2013,10,01,10,56,4.80
2013,10,01,10,57,6.40
2013,10,01,10,58,6.40
2013,10,01,10,59,4.80
2013,10,01,11,00,6.40
2013,10,01,11,01,6.40
2013,10,01,11,02,3.20
2013,10,01,11,03,4.80
2013,10,01,11,04,6.40
2013,10,01,11,05,9.60
2013,10,01,11,06,3.20
2013,10,01,11,07,4.80
2013,10,01,11,08,4.80
2013,10,01,11,09,8.10
2013,10,01,11,10,8.10
2013,10,01,11,11,8.10
2013,10,01,11,12,6.40
2013,10,01,11,13,4.80
2013,10,01,11,14,4.80
2013,10,01,11,15,6.40
2013,10,01,11,16,4.80
2013,10,01,11,17,8.10
2013,10,01,11,18,8.10
2013,10,01,11,19,6.40
2013,10,01,11,20,3.20
2013,10,01,11,21,4.80
2013,10,01,11,22,4.80
2013,10,01,11,23,3.20
2013,10,01,11,24,3.20
2013,10,01,11,25,1.60
2013,10,01,11,26,3.20
2013,10,01,11,27,6.40
2013,10,01,11,28,1.60
2013,10,01,11,29,1.60
2013,10,01,11,30,1.60
2013,10,01,11,31,1.60
2013,10,01,11,32,6.40
2013,10,01,11,33,9.60
2013,10,01,11,34,6.40
2013,10,01,11,35,4.80
2013,10,01,11,36,1.60
2013,10,01,11,37,3.20
2013,10,01,11,38,4.80
2013,10,01,11,39,3.20
2013,10,01,11,40,6.40
2013,10,01,11,41,4.80
2013,10,01,11,42,4.80
2013,10,01,11,43,3.20
2013,10,01,11,44,1.60
2013,10,01,11,45,4.80
2013,10,01,11,46,1.60
2013,10,01,11,47,4.80
2013,10,01,11,48,8.10
2013,10,01,11,49,8.10
2013,10,01,11,50,4.80
2013,10,01,11,51,6.40
2013,10,01,11,52,8.10
2013,10,01,11,53,6.40
2013,10,01,11,54,3.20
2013,10,01,11,55,9.60
2013,10,01,11,56,6.40
2013,10,01,11,57,3.20
2013,10,01,11,58,4.80
2013,10,01,11,59,8.10
2013,10,01,12,00,11.30
2013,10,01,12,01,6.40
2013,10,01,12,02,3.20
2013,10,01,12,03,3.20
2013,10,01,12,04,4.80
2013,10,01,12,05,4.80
2013,10,01,12,06,4.80
2013,10,01,12,07,3.20
2013,10,01,12,08,4.80
2013,10,01,12,09,6.40
2013,10,01,12,10,6.40
2013,10,01,12,11,8.10
2013,10,01,12,12,8.10
2013,10,01,12,13,6.40
2013,10,01,12,14,4.80
2013,10,01,12,15,6.40
2013,10,01,12,16,8.10
2013,10,01,12,17,6.40
2013,10,01,12,18,4.80
2013,10,01,12,19,6.40
2013,10,01,12,20,6.40
2013,10,01,12,21,4.80
2013,10,01,12,22,9.60
2013,10,01,12,23,8.10
2013,10,01,12,24,8.10
2013,10,01,12,25,9.60
2013,10,01,12,26,9.60
2013,10,01,12,27,8.10
2013,10,01,12,28,4.80
2013,10,01,12,29,4.80
2013,10,01,12,30,8.10
2013,10,01,12,31,6.40
2013,10,01,12,32,8.10
2013,10,01,12,33,9.60
2013,10,01,12,34,6.40
2013,10,01,12,35,20.90
2013,10,01,12,36,6.40
2013,10,01,12,37,8.10
2013,10,01,12,38,11.30
2013,10,01,12,39,11.30
2013,10,01,12,40,11.30
2013,10,01,12,41,17.70
2013,10,01,12,42,12.90
2013,10,01,12,43,9.60
2013,10,01,12,44,9.60
2013,10,01,12,45,14.50
2013,10,01,12,46,14.50
2013,10,01,12,47,14.50
2013,10,01,12,48,12.90
2013,10,01,12,49,11.30
2013,10,01,12,50,14.50
2013,10,01,12,51,8.10
2013,10,01,12,52,11.30
2013,10,01,12,53,11.30
2013,10,01,12,54,11.30
2013,10,01,12,55,11.30
2013,10,01,12,56,9.60
2013,10,01,12,57,14.50
2013,10,01,12,58,14.50
2013,10,01,12,59,11.30
2013,10,01,13,00,11.30
2013,10,01,13,01,14.50
2013,10,01,13,02,14.50
2013,10,01,13,03,11.30
2013,10,01,13,04,8.10
2013,10,01,13,05,9.60
2013,10,01,13,06,9.60
2013,10,01,13,07,11.30
2013,10,01,13,08,8.10
2013,10,01,13,09,8.10
2013,10,01,13,10,11.30
2013,10,01,13,11,8.10
2013,10,01,13,12,9.60
2013,10,01,13,13,11.30
2013,10,01,13,14,9.60
2013,10,01,13,15,9.60
2013,10,01,13,16,14.50
2013,10,01,13,17,8.10
2013,10,01,13,18,12.90
2013,10,01,13,19,11.30
2013,10,01,13,20,6.40
2013,10,01,13,21,11.30
2013,10,01,13,22,17.70
2013,10,01,13,23,9.60
2013,10,01,13,24,17.70
2013,10,01,13,25,16.10
2013,10,01,13,26,14.50
2013,10,01,13,27,11.30
2013,10,01,13,28,11.30
2013,10,01,13,29,9.60
2013,10,01,13,30,11.30
2013,10,01,13,31,11.30
2013,10,01,13,32,14.50
2013,10,01,13,33,12.90
2013,10,01,13,34,12.90
2013,10,01,13,35,9.60
2013,10,01,13,36,11.30
2013,10,01,13,37,14.50
2013,10,01,13,38,9.60
2013,10,01,13,39,8.10
2013,10,01,13,40,8.10
2013,10,01,13,41,9.60
2013,10,01,13,42,8.10
2013,10,01,13,43,8.10
2013,10,01,13,44,16.10
2013,10,01,13,45,8.10
2013,10,01,13,46,9.60
2013,10,01,13,47,9.60
2013,10,01,13,48,9.60
2013,10,01,13,49,11.30
2013,10,01,13,50,6.40
2013,10,01,13,51,4.80
2013,10,01,13,52,4.80
2013,10,01,13,53,8.10
2013,10,01,13,54,9.60
2013,10,01,13,55,11.30
2013,10,01,13,56,8.10
2013,10,01,13,57,6.40
2013,10,01,13,58,12.90
2013,10,01,13,59,14.50
2013,10,01,14,00,8.10
2013,10,01,14,01,17.70
2013,10,01,14,02,12.90
2013,10,01,14,03,11.30
2013,10,01,14,04,9.60
2013,10,01,14,05,9.60
2013,10,01,14,06,9.60
2013,10,01,14,07,8.10
2013,10,01,14,08,8.10
2013,10,01,14,09,8.10
2013,10,01,14,10,9.60
2013,10,01,14,11,9.60
2013,10,01,14,12,9.60
2013,10,01,14,13,14.50
2013,10,01,14,14,9.60
2013,10,01,14,15,8.10
2013,10,01,14,16,14.50
2013,10,01,14,17,6.40
2013,10,01,14,18,9.60
2013,10,01,14,19,6.40
2013,10,01,14,20,6.40
2013,10,01,14,21,4.80
2013,10,01,14,22,6.40
2013,10,01,14,23,8.10
2013,10,01,14,24,9.60
2013,10,01,14,25,6.40
2013,10,01,14,26,14.50
2013,10,01,14,27,14.50
2013,10,01,14,28,9.60
2013,10,01,14,29,9.60
2013,10,01,14,30,6.40
2013,10,01,14,31,9.60
2013,10,01,14,32,11.30
2013,10,01,14,33,9.60
2013,10,01,14,34,8.10
2013,10,01,14,35,11.30
2013,10,01,14,36,9.60
2013,10,01,14,37,8.10
2013,10,01,14,38,6.40
2013,10,01,14,39,6.40
2013,10,01,14,40,9.60
2013,10,01,14,41,9.60
2013,10,01,14,42,9.60
2013,10,01,14,43,9.60
2013,10,01,14,44,8.10
2013,10,01,14,45,8.10
2013,10,01,14,46,9.60
2013,10,01,14,47,9.60
2013,10,01,14,48,9.60
2013,10,01,14,49,11.30
2013,10,01,14,50,9.60
2013,10,01,14,51,9.60
2013,10,01,14,52,9.60
2013,10,01,14,53,11.30
2013,10,01,14,54,12.90
2013,10,01,14,55,11.30
2013,10,01,14,56,11.30
2013,10,01,14,57,9.60
2013,10,01,14,58,8.10
2013,10,01,14,59,8.10
2013,10,01,15,00,8.10
2013,10,01,15,01,9.60
2013,10,01,15,02,8.10
2013,10,01,15,03,8.10
2013,10,01,15,04,9.60
2013,10,01,15,05,6.40
2013,10,01,15,06,8.10
2013,10,01,15,07,9.60
2013,10,01,15,08,9.60
2013,10,01,15,09,9.60
2013,10,01,15,10,16.10
2013,10,01,15,11,8.10
2013,10,01,15,12,8.10
2013,10,01,15,13,8.10
2013,10,01,15,14,9.60
2013,10,01,15,15,8.10
2013,10,01,15,16,9.60
2013,10,01,15,17,14.50
2013,10,01,15,18,14.50
2013,10,01,15,19,9.60
2013,10,01,15,20,11.30
2013,10,01,15,21,9.60
2013,10,01,15,22,9.60
2013,10,01,15,23,4.80
2013,10,01,15,24,8.10
2013,10,01,15,25,4.80
2013,10,01,15,26,6.40
2013,10,01,15,27,8.10
2013,10,01,15,28,9.60
2013,10,01,15,29,9.60
2013,10,01,15,30,8.10
2013,10,01,15,31,8.10
2013,10,01,15,32,8.10
2013,10,01,15,33,6.40
2013,10,01,15,34,6.40
2013,10,01,15,35,6.40
2013,10,01,15,36,8.10
2013,10,01,15,37,6.40
2013,10,01,15,38,4.80
2013,10,01,15,39,4.80
2013,10,01,15,40,3.20
2013,10,01,15,41,3.20
2013,10,01,15,42,4.80
2013,10,01,15,43,6.40
2013,10,01,15,44,8.10
2013,10,01,15,45,3.20
2013,10,01,15,46,3.20
2013,10,01,15,47,4.80
2013,10,01,15,48,3.20
2013,10,01,15,49,3.20
2013,10,01,15,50,3.20
2013,10,01,15,51,3.20
2013,10,01,15,52,3.20
2013,10,01,15,53,4.80
2013,10,01,15,54,3.20
2013,10,01,15,55,3.20
2013,10,01,15,56,3.20
2013,10,01,15,57,3.20
2013,10,01,15,58,3.20
2013,10,01,15,59,3.20
2013,10,01,16,00,1.60
2013,10,01,16,01,1.60
2013,10,01,16,02,1.60
2013,10,01,16,03,1.60
2013,10,01,16,04,3.20
2013,10,01,16,05,3.20
2013,10,01,16,06,3.20
2013,10,01,16,07,3.20
2013,10,01,16,08,3.20
2013,10,01,16,09,3.20
2013,10,01,16,10,1.60
2013,10,01,16,11,1.60
2013,10,01,16,12,4.80
2013,10,01,16,13,3.20
2013,10,01,16,14,1.60
2013,10,01,16,15,1.60
2013,10,01,16,16,1.60
2013,10,01,16,17,3.20
2013,10,01,16,18,1.60
2013,10,01,16,19,1.60
2013,10,01,16,20,1.60
2013,10,01,16,21,1.60
2013,10,01,16,22,1.60
2013,10,01,16,25,1.60
2013,10,01,16,26,1.60
2013,10,01,16,27,1.60
2013,10,01,16,28,1.60
2013,10,01,16,29,1.60
2013,10,01,16,30,1.60
2013,10,01,16,31,1.60
2013,10,01,16,32,1.60
2013,10,01,16,33,1.60
2013,10,01,16,34,1.60
2013,10,01,16,35,1.60
2013,10,01,16,36,1.60
2013,10,01,16,37,1.60
2013,10,01,16,38,1.60
2013,10,01,16,41,1.60
2013,10,01,16,42,1.60
2013,10,01,16,43,1.60
2013,10,01,16,44,1.60
2013,10,01,16,45,1.60
2013,10,01,16,46,1.60
2013,10,01,16,47,1.60
2013,10,01,16,48,1.60
2013,10,01,16,49,3.20
2013,10,01,16,50,1.60
2013,10,01,16,51,1.60
2013,10,01,16,52,3.20
2013,10,01,16,53,3.20
2013,10,01,16,54,1.60
2013,10,01,16,55,3.20
2013,10,01,16,56,1.60
2013,10,01,16,57,1.60
2013,10,01,16,59,1.60
2013,10,01,17,02,1.60
2013,10,01,17,03,1.60
2013,10,01,17,04,3.20
2013,10,01,17,05,1.60
2013,10,01,17,06,1.60
2013,10,01,17,07,1.60
2013,10,01,17,08,1.60
2013,10,01,17,09,1.60
2013,10,01,17,12,1.60
2013,10,01,17,13,1.60
2013,10,01,17,14,1.60
2013,10,01,17,15,1.60
2013,10,01,17,16,3.20
2013,10,01,17,17,3.20
2013,10,01,17,18,3.20
2013,10,01,17,19,3.20
2013,10,01,17,20,1.60
2013,10,01,17,21,3.20
2013,10,01,17,22,1.60
2013,10,01,17,23,1.60
2013,10,01,17,24,4.80
2013,10,01,17,25,4.80
2013,10,01,17,26,8.10
2013,10,01,17,27,6.40
2013,10,01,17,28,4.80
2013,10,01,17,29,4.80
2013,10,01,17,30,3.20
2013,10,01,17,31,1.60
2013,10,01,17,32,1.60
2013,10,01,17,33,1.60
2013,10,01,17,34,1.60
2013,10,01,17,35,3.20
2013,10,01,17,36,1.60
2013,10,01,17,37,1.60
2013,10,01,17,38,1.60
2013,10,01,17,39,1.60
2013,10,01,17,41,1.60
2013,10,01,17,42,1.60
2013,10,01,17,43,1.60
2013,10,01,17,44,1.60
2013,10,01,17,45,1.60
2013,10,01,17,46,1.60
2013,10,01,17,47,1.60
2013,10,01,17,48,1.60
2013,10,01,17,49,1.60
2013,10,01,17,50,1.60
2013,10,01,17,51,1.60
2013,10,01,17,52,1.60
2013,10,01,17,53,1.60
2013,10,01,17,54,1.60
2013,10,01,17,55,1.60
2013,10,01,17,56,1.60
2013,10,01,17,57,1.60
2013,10,01,17,58,1.60
2013,10,01,17,59,1.60
2013,10,01,18,00,1.60
2013,10,01,18,01,1.60
2013,10,01,18,02,1.60
2013,10,01,18,05,1.60
2013,10,01,18,06,1.60
2013,10,01,18,07,1.60
2013,10,01,18,08,1.60
2013,10,01,18,10,1.60
2013,10,01,18,11,1.60
2013,10,01,18,12,1.60
2013,10,01,18,13,1.60
2013,10,01,18,18,1.60
2013,10,01,18,19,1.60
2013,10,01,18,20,1.60
2013,10,01,18,21,1.60
2013,10,01,18,22,1.60
2013,10,01,18,23,1.60
2013,10,01,18,24,1.60
2013,10,01,18,25,1.60
2013,10,01,18,27,1.60
2013,10,01,18,29,1.60
2013,10,01,18,30,1.60
2013,10,01,18,31,1.60
2013,10,01,18,32,1.60
2013,10,01,18,33,1.60
2013,10,01,18,34,1.60
2013,10,01,18,35,1.60
2013,10,01,18,36,1.60
2013,10,01,18,37,1.60
2013,10,01,18,39,1.60
2013,10,01,18,40,1.60
2013,10,01,18,41,1.60
2013,10,01,18,42,1.60
2013,10,01,18,43,1.60
2013,10,01,18,45,1.60
2013,10,01,18,46,1.60
2013,10,01,18,51,1.60
2013,10,01,18,52,1.60
2013,10,01,18,53,1.60
2013,10,01,18,54,1.60
2013,10,01,18,55,1.60
2013,10,01,18,56,1.60
2013,10,01,18,57,1.60
2013,10,01,18,58,1.60
2013,10,01,18,59,1.60
2013,10,01,19,00,1.60
2013,10,01,19,01,3.20
2013,10,01,19,02,3.20
2013,10,01,19,03,3.20
2013,10,01,19,04,3.20
2013,10,01,19,05,3.20
2013,10,01,19,06,1.60
2013,10,01,19,07,1.60
2013,10,01,19,08,1.60
2013,10,01,19,12,1.60
2013,10,01,19,13,3.20
2013,10,01,19,14,1.60
2013,10,01,19,15,1.60
2013,10,01,19,16,1.60
2013,10,01,19,18,1.60
2013,10,01,19,20,1.60
2013,10,01,19,21,1.60
2013,10,01,19,22,1.60
2013,10,01,19,23,1.60
2013,10,01,19,24,1.60
2013,10,01,19,25,1.60
2013,10,01,19,27,1.60
2013,10,01,19,28,1.60
2013,10,01,19,33,1.60
2013,10,01,19,34,1.60
2013,10,01,19,35,1.60
2013,10,01,19,37,1.60
2013,10,01,19,41,3.20
2013,10,01,19,42,3.20
2013,10,01,19,43,3.20
2013,10,01,19,44,1.60
2013,10,01,19,51,1.60
2013,10,01,19,52,1.60
2013,10,01,19,53,1.60
2013,10,01,19,54,1.60
2013,10,01,19,57,3.20
2013,10,01,19,58,3.20
2013,10,01,19,59,1.60
2013,10,01,20,02,1.60
2013,10,01,20,05,1.60
2013,10,01,20,06,1.60
2013,10,01,20,07,1.60
2013,10,01,20,08,1.60
2013,10,01,20,09,1.60
2013,10,01,20,10,1.60
2013,10,01,20,11,1.60
2013,10,01,20,12,1.60
2013,10,01,20,13,1.60
2013,10,01,20,14,1.60
2013,10,01,20,15,1.60
2013,10,01,20,16,1.60
2013,10,01,20,17,1.60
2013,10,01,20,18,1.60
2013,10,01,20,19,1.60
2013,10,01,20,21,1.60
2013,10,01,20,25,1.60
2013,10,01,20,26,1.60
2013,10,01,20,27,1.60
2013,10,01,20,32,1.60
2013,10,01,20,33,1.60
2013,10,01,20,34,1.60
2013,10,01,20,35,1.60
2013,10,01,20,36,1.60
2013,10,01,20,37,1.60
2013,10,01,20,40,1.60
2013,10,01,20,41,1.60
2013,10,01,20,42,1.60
2013,10,01,20,46,1.60
2013,10,01,20,47,1.60
2013,10,01,20,50,1.60
2013,10,01,20,51,3.20
2013,10,01,20,52,1.60
2013,10,01,20,53,1.60
2013,10,01,20,54,1.60
2013,10,01,20,55,1.60
2013,10,01,22,51,3.20
2013,10,01,22,52,1.60
2013,10,01,22,53,1.60
2013,10,01,22,54,3.20
2013,10,01,22,55,1.60
2013,10,01,22,56,1.60
2013,10,01,22,57,1.60
2013,10,01,22,58,3.20
2013,10,01,22,59,3.20
2013,10,01,23,00,3.20
2013,10,01,23,01,3.20
2013,10,01,23,02,3.20
2013,10,01,23,03,3.20
2013,10,01,23,04,1.60
2013,10,01,23,05,3.20
2013,10,01,23,06,3.20
2013,10,01,23,07,3.20
2013,10,01,23,08,1.60
2013,10,01,23,09,1.60
2013,10,01,23,10,1.60
2013,10,01,23,11,3.20
2013,10,01,23,12,1.60
2013,10,01,23,13,1.60
2013,10,01,23,14,1.60
2013,10,01,23,15,1.60
2013,10,01,23,16,3.20
2013,10,01,23,17,1.60
2013,10,01,23,18,1.60
2013,10,01,23,19,1.60
2013,10,01,23,20,3.20
2013,10,01,23,21,3.20
2013,10,01,23,22,1.60
2013,10,01,23,23,3.20
2013,10,01,23,24,3.20
2013,10,01,23,25,3.20
2013,10,01,23,26,3.20
2013,10,01,23,27,3.20
2013,10,01,23,28,3.20
2013,10,01,23,29,3.20
2013,10,01,23,30,3.20